Location: Bay Ridge
(40.6340°N, 74.0146°W)
Time: 04:36:57
(UTC+00:00)

SKYMED 2 - Pass Details

Date: 15 November 2019
Orbit: 621 x 623 km, 97.9° (Epoch: 08 December)

Event Time Altitude Azimuth Distance (km) Brightness Sun altitude
Rises 10:13:54 0° 169° (S) 2,888 7.3 -16.9°
Reaches altitude 10° 10:16:05 10° 171° (S) 1,986 6.4 -16.4°
Maximum altitude 10:20:24 79° 257° (WSW) 640 3.5 -15.6°
Drops below altitude 10° 10:24:46 10° 345° (NNW) 2,001 5.9 -14.8°
Sets 10:26:58 0° 347° (NNW) 2,912 6.8 -14.4°
